Chandler, OK

3:53 PM CDT on May 24, 2017 (GMT -0500)
Chandler Municipal

Weather History for KCQB - November, 2012

Change the Weather History Date:

Thursday, November 8, 2012

  Actual Average (KCUH) Record (KCUH)
Temperature  
Mean Temperature 62 °F -  
Max Temperature 80 °F 61 °F 83 °F (1966)
Min Temperature 44 °F 40 °F 22 °F (1959)
Degree Days  
Heating Degree Days 3    
Growing Degree Days 12 (Base 50)    
Moisture  
Dew Point 47 °F    
Average Humidity 56    
Maximum Humidity 78    
Minimum Humidity 39    
Precipitation  
Precipitation 0.00 in - - ()
Sea Level Pressure  
Sea Level Pressure 29.96 in    
Wind  
Wind Speed 11 mph (SSE)    
Max Wind Speed 22 mph    
Max Gust Speed 30 mph    
Visibility 10 miles    
Events      
Averages and records for this station are not official NWS values.
T = Trace of Precipitation, MM = Missing Value Source: NWS Daily Summary

Daily Weather History Graph

Daily Weather History Graph

Search for Another Location

Airport or City:

Trip Planner

Search our weather history database for the weather conditions in past years. The results will help you decide how hot, cold, wet, or windy it might be!

Date:

Astronomy

Nov. 08, 2012 Rise Set
Actual Time 6:56 AM CST 5:24 PM CST
Civil Twilight 6:29 AM CST 5:51 PM CST
Nautical Twilight 5:59 AM CST 6:22 PM CST
Astronomical Twilight 5:29 AM CST 6:52 PM CST
Moon 1:04 AM CST (11/8) 1:56 PM CST (11/8)
Length of Visible Light 11h 21m
Length of Day
10h 28m
Waning Crescent, 32% of the Moon is Illuminated
Nov 8
Waning Crescent
Nov 13
New
Nov 20
First Quarter
Nov 28
Full
Dec 6
Last Quarter

Hourly Weather History & Observations

Time (CST) Temp. Windchill Dew Point Humidity Pressure Visibility Wind Dir Wind Speed Gust Speed Precip Events Conditions
12:15 AM 50.0 °F - 35.6 °F 58% 30.07 in 10.0 mi SE 6.9 mph - N/A   Clear
12:35 AM 50.0 °F - 35.6 °F 58% 30.07 in 10.0 mi SE 6.9 mph - N/A   Clear
12:55 AM 50.0 °F - 35.6 °F 58% 30.06 in 10.0 mi SE 6.9 mph - N/A   Clear
1:15 AM 51.8 °F - 35.6 °F 54% 30.06 in 10.0 mi SE 6.9 mph - N/A   Clear
1:35 AM 50.0 °F - 35.6 °F 58% 30.06 in 10.0 mi SE 8.1 mph - N/A   Clear
1:55 AM 50.0 °F - 35.6 °F 58% 30.06 in 10.0 mi SE 8.1 mph - N/A   Clear
2:15 AM 50.0 °F - 35.6 °F 58% 30.06 in 10.0 mi SE 6.9 mph - N/A   Clear
2:35 AM 50.0 °F - 35.6 °F 58% 30.06 in 10.0 mi SE 6.9 mph - N/A   Clear
2:55 AM 48.2 °F - 35.6 °F 62% 30.05 in 10.0 mi SE 6.9 mph - N/A   Clear
3:15 AM 48.2 °F - 35.6 °F 62% 30.05 in 10.0 mi SE 8.1 mph - N/A   Clear
3:35 AM 46.4 °F 43.5 °F 35.6 °F 66% 30.04 in 10.0 mi ESE 5.8 mph - N/A   Clear
3:55 AM 46.4 °F 43.5 °F 35.6 °F 66% 30.05 in 10.0 mi ESE 5.8 mph - N/A   Clear
4:15 AM 44.6 °F 40.7 °F 35.6 °F 71% 30.04 in 10.0 mi ESE 6.9 mph - N/A   Clear
4:35 AM 44.6 °F 41.4 °F 35.6 °F 71% 30.04 in 10.0 mi SE 5.8 mph - N/A   Clear
4:55 AM 44.6 °F 41.4 °F 35.6 °F 71% 30.04 in 10.0 mi SE 5.8 mph - N/A   Clear
5:15 AM 44.6 °F 41.4 °F 35.6 °F 71% 30.04 in 10.0 mi SE 5.8 mph - N/A   Clear
5:35 AM 44.6 °F 41.4 °F 35.6 °F 71% 30.04 in 10.0 mi SE 5.8 mph - N/A   Clear
5:55 AM 44.6 °F 40.7 °F 35.6 °F 71% 30.04 in 10.0 mi SE 6.9 mph - N/A   Clear
6:15 AM 46.4 °F 43.5 °F 35.6 °F 66% 30.04 in 10.0 mi SE 5.8 mph - N/A   Clear
6:35 AM 46.4 °F 42.9 °F 35.6 °F 66% 30.04 in 10.0 mi SSE 6.9 mph - N/A   Clear
6:55 AM 50.0 °F - 35.6 °F 58% 30.04 in 10.0 mi SSE 9.2 mph - N/A   Clear
7:15 AM 51.8 °F - 35.6 °F 54% 30.04 in 10.0 mi SSE 11.5 mph 18.4 mph N/A   Clear
7:35 AM 53.6 °F - 35.6 °F 51% 30.04 in 10.0 mi SSE 12.7 mph 18.4 mph N/A   Clear
7:55 AM 55.4 °F - 35.6 °F 47% 30.04 in 10.0 mi SSE 10.4 mph 18.4 mph N/A   Clear
8:15 AM 55.4 °F - 37.4 °F 51% 30.05 in 10.0 mi South 12.7 mph 17.3 mph N/A   Clear
8:35 AM 59.0 °F - 37.4 °F 45% 30.04 in 10.0 mi South 17.3 mph 23.0 mph N/A   Clear
8:55 AM 60.8 °F - 39.2 °F 45% 30.04 in 10.0 mi South 16.1 mph 24.2 mph N/A   Clear
9:15 AM 62.6 °F - 41.0 °F 45% 30.03 in 10.0 mi South 13.8 mph 25.3 mph N/A   Clear
9:35 AM 62.6 °F - 41.0 °F 45% 30.02 in 10.0 mi South 19.6 mph 29.9 mph N/A   Clear
9:55 AM 64.4 °F - 42.8 °F 45% 30.01 in 10.0 mi SSE 21.9 mph 27.6 mph N/A   Clear
10:15 AM 66.2 °F - 42.8 °F 43% 30.00 in 10.0 mi South 20.7 mph 27.6 mph N/A   Clear
10:35 AM 68.0 °F - 44.6 °F 43% 30.00 in 10.0 mi South 19.6 mph 24.2 mph N/A   Clear
10:55 AM 69.8 °F - 46.4 °F 43% 29.99 in 10.0 mi South 18.4 mph 25.3 mph N/A   Clear
11:15 AM 71.6 °F - 48.2 °F 43% 29.98 in 10.0 mi South 17.3 mph 27.6 mph N/A   Clear
11:35 AM 71.6 °F - 50.0 °F 46% 29.97 in 10.0 mi SSE 18.4 mph 24.2 mph N/A   Clear
11:55 AM 73.4 °F - 50.0 °F 44% 29.96 in 10.0 mi South 17.3 mph 25.3 mph N/A   Clear
12:15 PM 73.4 °F - 50.0 °F 44% 29.95 in 10.0 mi South 16.1 mph 24.2 mph N/A   Clear
12:35 PM 75.2 °F - 50.0 °F 41% 29.93 in 10.0 mi South 19.6 mph 29.9 mph N/A   Clear
12:55 PM 77.0 °F - 50.0 °F 39% 29.92 in 10.0 mi South 18.4 mph 25.3 mph N/A   Clear
1:15 PM 77.0 °F - 51.8 °F 41% 29.91 in 10.0 mi South 20.7 mph 26.5 mph N/A   Clear
1:35 PM 77.0 °F - 51.8 °F 41% 29.90 in 10.0 mi SSE 17.3 mph 23.0 mph N/A   Clear
1:55 PM 78.8 °F - 51.8 °F 39% 29.89 in 10.0 mi South 15.0 mph 23.0 mph N/A   Clear
2:15 PM 78.8 °F - 53.6 °F 42% 29.88 in 10.0 mi South 17.3 mph 26.5 mph N/A   Clear
2:35 PM 78.8 °F - 53.6 °F 42% 29.88 in 10.0 mi South 16.1 mph 21.9 mph N/A   Clear
2:55 PM 78.8 °F - 53.6 °F 42% 29.87 in 10.0 mi South 18.4 mph 26.5 mph N/A   Clear
3:15 PM 80.6 °F - 55.4 °F 42% 29.87 in 10.0 mi South 16.1 mph 25.3 mph N/A   Clear
3:35 PM 78.8 °F - 55.4 °F 44% 29.87 in 10.0 mi South 21.9 mph 29.9 mph N/A   Clear
3:55 PM 78.8 °F - 55.4 °F 44% 29.87 in 10.0 mi SSE 13.8 mph 21.9 mph N/A   Clear
4:15 PM 78.8 °F - 55.4 °F 44% 29.87 in 10.0 mi South 12.7 mph 21.9 mph N/A   Clear
4:35 PM 78.8 °F - 55.4 °F 44% 29.87 in 10.0 mi South 12.7 mph 23.0 mph N/A   Clear
4:55 PM 77.0 °F - 55.4 °F 47% 29.87 in 10.0 mi South 11.5 mph 21.9 mph N/A   Clear
5:15 PM 77.0 °F - 57.2 °F 50% 29.87 in 10.0 mi South 11.5 mph 25.3 mph N/A   Clear
5:35 PM 75.2 °F - 57.2 °F 53% 29.87 in 10.0 mi South 12.7 mph 20.7 mph N/A   Clear
5:55 PM 73.4 °F - 57.2 °F 57% 29.88 in 10.0 mi South 13.8 mph 18.4 mph N/A   Clear
6:15 PM 73.4 °F - 57.2 °F 57% 29.88 in 10.0 mi South 12.7 mph 19.6 mph N/A   Clear
6:35 PM 73.4 °F - 59.0 °F 61% 29.88 in 10.0 mi South 15.0 mph 20.7 mph N/A   Clear
6:55 PM 71.6 °F - 59.0 °F 64% 29.88 in 10.0 mi South 15.0 mph 20.7 mph N/A   Clear
7:15 PM 71.6 °F - 59.0 °F 64% 29.88 in 10.0 mi South 13.8 mph 21.9 mph N/A   Clear
7:35 PM 71.6 °F - 59.0 °F 64% 29.88 in 10.0 mi South 15.0 mph 25.3 mph N/A   Clear
7:55 PM 71.6 °F - 59.0 °F 64% 29.89 in 10.0 mi South 15.0 mph 25.3 mph N/A   Clear
8:15 PM 71.6 °F - 59.0 °F 64% 29.89 in 7.0 mi South 12.7 mph 20.7 mph N/A   Clear
8:35 PM 69.8 °F - 59.0 °F 68% 29.89 in 10.0 mi South 16.1 mph 25.3 mph N/A   Clear
8:55 PM 69.8 °F - 59.0 °F 68% 29.90 in 10.0 mi South 17.3 mph 23.0 mph N/A   Clear
9:15 PM 69.8 °F - 59.0 °F 68% 29.90 in 10.0 mi South 13.8 mph 21.9 mph N/A   Clear
9:35 PM 69.8 °F - 59.0 °F 68% 29.90 in 10.0 mi South 15.0 mph 21.9 mph N/A   Clear
9:55 PM 69.8 °F - 59.0 °F 68% 29.90 in 10.0 mi South 13.8 mph 25.3 mph N/A   Clear
10:15 PM 69.8 °F - 59.0 °F 68% 29.90 in 10.0 mi South 15.0 mph 21.9 mph N/A   Clear
10:35 PM 68.0 °F - 59.0 °F 73% 29.90 in 10.0 mi South 15.0 mph 21.9 mph N/A   Clear
10:55 PM 68.0 °F - 59.0 °F 73% 29.90 in 10.0 mi South 12.7 mph 21.9 mph N/A   Clear
11:15 PM 68.0 °F - 59.0 °F 73% 29.90 in 10.0 mi South 15.0 mph 23.0 mph N/A   Clear
11:35 PM 68.0 °F - 59.0 °F 73% 29.90 in 10.0 mi South 16.1 mph 20.7 mph N/A   Clear
11:55 PM 66.2 °F - 59.0 °F 78% 29.90 in 10.0 mi South 13.8 mph 19.6 mph N/A   Clear